Date String (YYYY-MM-DD hh:mm:ss) UTC,Instrument flags,Ambient pressure (hPa),Sample flow (lpm),Bypass flow (lpm),Sample temperature (°C),Ambient temperature (°C),ASC tube jacket temperature (°C),LED temperature (°C),Box temperature (°C),Sample RH (%),Span deviation,Mass concentration (μg/m³),Mass concentration (μg/m³),Mass concentration (μg/m³)
DateTimeUTC,F1_M11,P_M11,Q1_M11,Q2_M11,T1_M11,T2_M11,T3_M11,T4_M11,T5_M11,U1_M11,ZSPAN_M11,X0_M11,X2_M11,X1_M11
2022-06-28 19:00:00,,0832.0,5.00,0.00,29.1,27.1,00.0,37.7,30.9,20.9,0000.0,0012.29,0005.26,0004.34
2022-06-28 19:01:00,,0831.9,5.00,0.00,29.0,26.9,00.0,37.7,30.8,20.6,0000.0,0012.28,0005.27,0004.35
2022-06-28 19:02:00,,0831.8,4.99,0.00,29.0,27.0,00.0,37.7,30.8,20.5,0000.0,0011.63,0005.32,0004.36
2022-06-28 19:03:00,,0831.8,5.00,0.00,29.0,27.1,00.0,37.7,30.8,20.8,0000.0,0011.75,0005.33,0004.36
2022-06-28 19:04:00,,0831.9,5.00,0.00,29.0,27.3,00.0,37.7,30.9,21.6,0000.0,0011.95,0005.34,0004.35
2022-06-28 19:05:00,,0831.8,5.01,0.00,29.0,27.5,00.0,37.7,30.9,21.4,0000.0,0012.48,0005.32,0004.35
2022-06-28 19:06:00,,0831.7,5.00,0.00,29.0,27.7,00.0,37.7,31.0,21.7,0000.0,0012.24,0005.27,0004.34
2022-06-28 19:07:00,,0831.7,5.00,0.00,29.0,27.9,00.0,37.8,31.1,20.1,0000.0,0012.90,0005.20,0004.33
2022-06-28 19:08:00,,0831.7,5.00,0.00,29.1,28.1,00.0,37.8,31.1,19.1,0000.0,0012.88,0005.15,0004.31
2022-06-28 19:09:00,,0831.7,5.01,0.00,29.1,27.6,00.0,37.7,31.0,19.8,0000.0,0012.80,0005.14,0004.28
2022-06-28 19:10:00,,0831.7,5.02,0.00,29.0,27.0,00.0,37.7,30.8,21.0,0000.0,0012.75,0005.15,0004.28
2022-06-28 19:11:00,,0831.7,5.00,0.00,29.0,26.9,00.0,37.7,30.8,21.0,0000.0,0013.05,0005.22,0004.31
2022-06-28 19:12:00,,0831.7,5.00,0.00,28.9,27.0,00.0,37.7,30.8,20.9,0000.0,0013.21,0005.25,0004.32
2022-06-28 19:13:00,,0831.7,5.01,0.00,28.9,27.1,00.0,37.7,30.8,20.4,0000.0,0013.69,0005.22,0004.32
2022-06-28 19:14:00,,0831.7,4.99,0.00,28.9,27.3,00.0,37.7,30.8,20.0,0000.0,0014.15,0005.25,0004.32
2022-06-28 19:15:00,,0831.7,5.01,0.00,29.0,27.5,00.0,37.7,30.9,19.3,0000.0,0014.74,0005.23,0004.30
2022-06-28 19:16:00,,0831.7,5.00,0.00,29.0,27.7,00.0,37.7,31.0,19.1,0000.0,0014.56,0005.24,0004.28
2022-06-28 19:17:00,,0831.7,5.00,0.00,29.0,27.9,00.0,37.7,31.1,19.7,0000.0,0014.37,0005.26,0004.27
2022-06-28 19:18:00,,0831.6,4.99,0.00,29.1,28.1,00.0,37.8,31.1,19.7,0000.0,0014.19,0005.33,0004.28
2022-06-28 19:19:00,,0831.6,5.01,0.00,29.1,27.7,00.0,37.7,31.0,20.0,0000.0,0014.81,0005.38,0004.31
2022-06-28 19:20:00,,0831.6,5.01,0.00,29.0,27.0,00.0,37.7,30.8,20.2,0000.0,0014.75,0005.39,0004.34
2022-06-28 19:21:00,,0831.6,5.00,0.00,29.0,26.8,00.0,37.7,30.7,19.6,0000.0,0014.56,0005.36,0004.34
2022-06-28 19:22:00,,0831.6,4.99,0.00,28.9,26.9,00.0,37.7,30.7,19.4,0000.0,0014.10,0005.29,0004.32
2022-06-28 19:23:00,,0831.6,4.98,0.00,28.9,27.1,00.0,37.7,30.7,19.6,0000.0,0014.04,0005.23,0004.28
2022-06-28 19:24:00,,0831.6,5.00,0.00,28.9,27.3,00.0,37.7,30.8,18.9,0000.0,0013.70,0005.20,0004.24
2022-06-28 19:25:00,,0831.6,5.00,0.00,28.9,27.5,00.0,37.7,30.9,18.2,0000.0,0013.49,0005.13,0004.20
2022-06-28 19:26:00,,0831.6,4.99,0.00,29.0,27.7,00.0,37.7,30.9,18.9,0000.0,0013.06,0005.11,0004.18
2022-06-28 19:27:00,,0831.6,5.01,0.00,29.0,27.9,00.0,37.7,31.0,19.7,0000.0,0013.00,0005.13,0004.18
2022-06-28 19:28:00,,0831.6,5.00,0.00,29.0,28.0,00.0,37.8,31.1,19.8,0000.0,0012.67,0005.13,0004.17
2022-06-28 19:29:00,,0831.6,4.99,0.00,29.1,28.1,00.0,37.8,31.1,20.0,0000.0,0012.49,0005.07,0004.15
2022-06-28 19:30:00,,0831.6,5.00,0.00,29.1,27.5,00.0,37.7,31.0,19.6,0000.0,0013.32,0005.00,0004.12
2022-06-28 19:31:00,,0831.5,5.01,0.00,29.0,27.0,00.0,37.7,30.8,19.3,0000.0,0013.48,0004.92,0004.08
2022-06-28 19:32:00,,0831.5,5.00,0.00,29.0,26.9,00.0,37.7,30.7,19.3,0000.0,0013.62,0004.86,0004.05
2022-06-28 19:33:00,,0831.6,4.99,0.00,28.9,27.0,00.0,37.7,30.7,19.4,0000.0,0014.34,0004.82,0004.01
2022-06-28 19:34:00,,0831.6,5.00,0.00,28.9,27.2,00.0,37.7,30.8,19.3,0000.0,0014.78,0004.82,0003.98
2022-06-28 19:35:00,,0831.6,5.00,0.00,28.9,27.4,00.0,37.7,30.9,19.8,0000.0,0014.81,0004.80,0003.96
2022-06-28 19:36:00,,0831.5,5.02,0.00,29.0,27.6,00.0,37.7,30.9,18.3,0000.0,0014.82,0004.80,0003.96
2022-06-28 19:37:00,,0831.5,5.00,0.00,29.0,27.8,00.0,37.7,31.0,18.3,0000.0,0014.98,0004.79,0003.96
2022-06-28 19:38:00,,0831.5,5.00,0.00,29.0,28.0,00.0,37.8,31.1,18.2,0000.0,0015.38,0004.75,0003.95
2022-06-28 19:39:00,,0831.5,5.01,0.00,29.1,28.1,00.0,37.8,31.1,17.6,0000.0,0015.82,0004.72,0003.94
2022-06-28 19:40:00,,0831.5,5.00,0.00,29.1,28.0,00.0,37.8,31.1,17.9,0000.0,0015.56,0004.71,0003.92
2022-06-28 19:41:00,,0831.5,4.99,0.00,29.1,27.3,00.0,37.7,30.9,18.1,0000.0,0014.62,0004.71,0003.92
2022-06-28 19:42:00,,0831.5,4.99,0.00,29.0,26.9,00.0,37.7,30.8,19.2,0000.0,0014.93,0004.70,0003.90
2022-06-28 19:43:00,,0831.5,5.00,0.00,29.0,27.0,00.0,37.7,30.8,19.5,0000.0,0014.90,0004.70,0003.87
2022-06-28 19:44:00,,0831.5,4.99,0.00,28.9,27.1,00.0,37.7,30.8,18.1,0000.0,0014.13,0004.67,0003.85
2022-06-28 19:45:00,,0831.5,5.00,0.00,28.9,27.3,00.0,37.7,30.8,17.7,0000.0,0014.10,0004.61,0003.83
2022-06-28 19:46:00,,0831.4,5.00,0.00,29.0,27.5,00.0,37.7,30.9,17.5,0000.0,0013.90,0004.58,0003.80
2022-06-28 19:47:00,,0831.5,5.00,0.00,29.0,27.7,00.0,37.7,31.0,17.7,0000.0,0013.76,0004.56,0003.77
2022-06-28 19:48:00,,0831.4,5.01,0.00,29.0,27.9,00.0,37.8,31.0,17.6,0000.0,0012.92,0004.57,0003.75
2022-06-28 19:49:00,,0831.4,5.03,0.00,29.1,28.1,00.0,37.8,31.1,17.5,0000.0,0013.14,0004.56,0003.73
2022-06-28 19:50:00,,0831.5,5.00,0.00,29.1,28.1,00.0,37.8,31.1,17.3,0000.0,0013.12,0004.50,0003.71
2022-06-28 19:51:00,,0831.5,5.00,0.00,29.1,27.3,00.0,37.7,30.9,17.6,0000.0,0013.02,0004.49,0003.68
2022-06-28 19:52:00,,0831.4,5.00,0.00,29.0,26.9,00.0,37.7,30.8,18.1,0000.0,0012.92,0004.45,0003.65
2022-06-28 19:53:00,,0831.4,5.00,0.00,29.0,26.9,00.0,37.7,30.8,17.5,0000.0,0011.64,0004.48,0003.64
2022-06-28 19:54:00,,0831.5,5.01,0.00,28.9,27.1,00.0,37.7,30.8,17.0,0000.0,0011.52,0004.49,0003.64
2022-06-28 19:55:00,,0831.5,4.99,0.00,28.9,27.3,00.0,37.7,30.8,16.8,0000.0,0011.80,0004.50,0003.64
2022-06-28 19:56:00,,0831.6,5.00,0.00,29.0,27.5,00.0,37.7,30.9,16.8,0000.0,0012.52,0004.54,0003.64
2022-06-28 19:57:00,,0831.5,5.01,0.00,29.0,27.7,00.0,37.7,31.0,16.9,0000.0,0013.98,0004.55,0003.64
2022-06-28 19:58:00,,0831.6,5.00,0.00,29.0,27.9,00.0,37.8,31.0,17.0,0000.0,0014.05,0004.52,0003.64
2022-06-28 19:59:00,,0831.5,4.99,0.00,29.1,28.1,00.0,37.8,31.1,17.1,0000.0,0014.02,0004.48,0003.64
